Location: Capelle
(50.3413°N, 1.9974°E)
Time: 22:36:08
(UTC+00:00)

Cosmos 2369 Rocket - Pass Details

Date: 12 January 2026
Orbit: 826 x 853 km, 71.0° (Epoch: 7 February)

Event Time Altitude Azimuth Distance (km) Brightness Sun altitude
Rises 17:20:25 0° 329° (NNW) 3,433 5.5 -10.4°
Reaches altitude 10° 17:22:54 10° 326° (NNW) 2,492 4.8 -10.7°
Maximum altitude 17:28:34 66° 246° (WSW) 927 2.7 -11.6°
Drops below altitude 10° 17:34:11 10° 165° (SSE) 2,465 4.7 -12.4°
Sets 17:36:37 0° 163° (SSE) 3,393 5.4 -12.8°
